Home > Weather > Kraków > Past weeks

Flag for Poland Weather for the Past 2 Weeks in Kraków, Poland

Now
45 °F

Clear.


Feels Like: 38 °F
Forecast: 37 / 49 °F
Wind: 15 mph from Southwest

Location: Krakow Airport

Current Time: Feb 9, 2016 at 7:16:34 AM

Latest Report: Feb 9, 2016 at 6:30 AM


Visibility: 10 mi

Pressure: 29.71 "Hg

Humidity: 66%

Dew point: 34 °F

Location of KrakówLocation

Historic Weather in Kraków — Graph

°F

Kraków Temperature Yesterday

Maximum temperature yesterday: 52 °F (at 12:30 PM)
Minimum temperature yesterday: 36 °F (at 3:00 AM)
Average temperature yesterday: 46 °F

High & Low Weather Summary for the Past Weeks

 TemperatureHumidityPressure
High55 °F (Jan 28, 11:30 AM)100% (Jan 25, 6:30 AM)30.30 "Hg (Jan 25, 6:30 AM)
Low28 °F (Jan 29, 1:00 AM)44% (Feb 7, 1:00 PM)29.65 "Hg (Jan 31, 3:00 AM)
Average41 °F79%30.03 "Hg
* Reported Jan 25 6:00 AM — Feb 9 6:30 AM, Kraków, Weather by CustomWeather, © 2016

Note: Actual official high and low records may vary slightly from our data, if they occured in-between our weather recording intervals... More about our weather records

Advertising

Kraków Weather History for the Previous 24 Hours

 ConditionsComfort  
Time TempWeatherWind HumidityBarometerVisibility
6:30 AM
Tue, Feb 9
45 °FClear.15 mph66%29.71 "Hg10 mi
6:00 AM45 °FClear.12 mph66%29.71 "Hg10 mi
5:30 AM46 °FClear.16 mph66%29.71 "Hg10 mi
5:00 AM46 °FClear.14 mph66%29.68 "Hg10 mi
4:30 AM46 °FClear.7 mph71%29.68 "Hg10 mi
4:00 AM46 °FPassing clouds.13 mph76%29.68 "HgN/A
3:30 AM48 °FPassing clouds.13 mph62%29.65 "HgN/A
3:00 AM50 °FPassing clouds.21 mph62%29.68 "HgN/A
2:00 AM50 °FPassing clouds.21 mph67%29.68 "HgN/A
1:30 AM50 °FPassing clouds.17 mph67%29.68 "HgN/A
1:00 AM50 °FPartly cloudy.10 mph71%29.65 "HgN/A
12:30 AM50 °FRain showers. Partly cloudy.17 mph71%29.71 "Hg4 mi
12:00 AM50 °FPassing clouds.13 mph67%29.68 "HgN/A
11:00 PM
Mon, Feb 8
50 °FPassing clouds.9 mph62%29.65 "HgN/A
10:30 PM50 °FClear.10 mph62%29.65 "Hg10 mi
10:00 PM50 °FClear.10 mph62%29.68 "Hg10 mi
9:30 PM50 °FPassing clouds.6 mph62%29.68 "HgN/A
9:00 PM48 °FClear.2 mph66%29.68 "Hg10 mi
8:30 PM48 °FPassing clouds.5 mph66%29.68 "HgN/A
8:00 PM48 °FClear.15 mph66%29.68 "Hg10 mi
7:30 PM50 °FClear.16 mph62%29.68 "Hg10 mi
7:00 PM48 °FClear.14 mph66%29.71 "Hg10 mi
6:30 PM50 °FPassing clouds.13 mph62%29.71 "HgN/A
6:00 PM48 °FClear.5 mph66%29.71 "Hg10 mi
5:30 PM48 °FClear.12 mph66%29.71 "Hg10 mi
5:00 PM50 °FClear.13 mph62%29.74 "Hg10 mi
4:30 PM50 °FPassing clouds.17 mph62%29.74 "HgN/A
4:00 PM50 °FPassing clouds.8 mph62%29.74 "HgN/A
3:30 PM52 °FPassing clouds.8 mph58%29.74 "HgN/A
3:00 PM52 °FPassing clouds.6 mph58%29.77 "HgN/A
2:30 PM52 °FPassing clouds.3 mph58%29.77 "HgN/A
2:00 PM50 °FScattered clouds.9 mph67%29.77 "HgN/A
1:30 PM50 °FScattered clouds.10 mph62%29.77 "HgN/A
1:00 PM50 °FPassing clouds.12 mph62%29.80 "HgN/A
12:30 PM52 °FPassing clouds.8 mph58%29.80 "HgN/A
12:00 PM50 °FPassing clouds.7 mph62%29.83 "HgN/A
11:30 AM50 °FPassing clouds.8 mph62%29.83 "HgN/A
11:00 AM48 °FSunny.10 mph62%29.86 "Hg10 mi
10:30 AM48 °FSunny.10 mph62%29.86 "Hg10 mi
10:00 AM46 °FSunny.7 mph66%29.86 "Hg10 mi
9:30 AM46 °FSunny.12 mph66%29.86 "Hg10 mi
9:00 AM46 °FSunny.12 mph66%29.86 "Hg10 mi
8:30 AM45 °FSunny.8 mph71%29.86 "Hg10 mi
8:00 AM39 °FSunny.1 mph81%29.86 "Hg10 mi
7:30 AM39 °FSunny.2 mph81%29.86 "Hg10 mi
7:00 AM43 °FClear.5 mph71%29.86 "Hg10 mi
Weather by CustomWeather, © 2016

See weather overviewHow to use our weather pages